Regional Weather Roundup
Issued by NWS

Home | Current Version | Previous Version | Graphics & Text | Print | Product List | Glossary On
Versions: 1 2 3 4 5 6 7 8 9 10 11 12 13 14 15 16 17 18 19 20 21 22 23 24 25 26 27 28 29 30 31 32 33 34 35 36 37 38 39 40 41 42 43 44 45 46 47 48 49 50
000
ASUS44 KMEG 250200
RWRTN
TENNESSEE HOURLY STATE WEATHER ROUNDUP
NATIONAL WEATHER SERVICE MEMPHIS TN
900 PM CDT FRI APR 24 2015

TNZ002-004-019-021-049-052-054-088>092-250300-
WEST TENNESSEE

CITY           SKY/WX    TMP DP  RH WIND       PRES   REMARKS
MEMPHIS INTL   RAIN      56  54  93 CALM      29.89R FOG
NWS MEMPHIS      N/A     55 N/A N/A MISG        N/A
JACKSON        LGT RAIN  55  52  89 CALM      29.89R
DYERSBURG      CLOUDY    54  41  62 SE3       29.88F
UNION CITY     CLOUDY    54  32  43 S8        29.86R
PARIS          MOCLDY    54  48  82 SE7       29.88R
LEXINGTON      MOCLDY    54  54 100 E5        29.87F
SAVANNAH       CLOUDY    55  32  41 CALM      29.86F
$$

TNZ008-025-027-028-033-062-065-066-250300-
NORTH MIDDLE TENNESSEE

CITY           SKY/WX    TMP DP  RH WIND       PRES   REMARKS
NASHVILLE      LGT RAIN  59  44  57 S5        29.93S
CLARKSVILLE    CLOUDY    58  41  53 S6        29.89F
COOKEVILLE     CLEAR     57  46  67 CALM      29.93S
CROSSVILLE     CLOUDY    59  31  34 S5        29.95F
$$

TNZ061-075-076-078-094-096-097-250300-
SOUTH MIDDLE TENNESSEE

CITY           SKY/WX    TMP DP  RH WIND       PRES   REMARKS
FAYETTEVILLE     N/A     57  48  72 E3        29.93F
TULLAHOMA      MOCLDY    57  45  62 S5        29.95F
WINCHESTER     CLOUDY    63  45  51 CALM      29.95F
MCMINNVILLE    PTCLDY    57  46  67 CALM      29.93F
COLUMBIA       CLOUDY    54  32  43 CALM      29.90F
SHELBYVILLE    CLOUDY    55  52  88 CALM      29.94F
$$

TNZ017-018-042-046-047-250300-
NORTHEAST TENNESSEE

CITY           SKY/WX    TMP DP  RH WIND       PRES   REMARKS
TRI CITIES     MOCLDY    52  38  58 CALM      29.97F
ELIZABETHTON   CLEAR     46  34  61 CALM      29.98F
$$

TNZ012-013-036-069-073-074-250300-
CENTRAL EAST TENNESSEE

CITY           SKY/WX    TMP DP  RH WIND       PRES   REMARKS
KNOXVILLE      CLOUDY    57  40  52 CALM      29.95F
OAK RIDGE      CLOUDY    57  39  51 CALM      29.96F
GATLINBURG     PTCLDY    54  39  58 CALM      29.95F
$$

TNZ083-085-099-250300-
SOUTHEAST TENNESSEE

CITY           SKY/WX    TMP DP  RH WIND       PRES   REMARKS
CHATTANOOGA    CLOUDY    62  45  53 N5        29.96S
$$

SKY/WX REPORTED AS FAIR MEANS FEW OR NO CLOUDS BELOW
12 THOUSAND FEET.




USA.gov is the U.S. government's official web portal to all federal, state and local government web resources and services.